ARIANE 5 DEB (SYLDA), 44803

Orbit data source: Space-Track

ARIANE 5 DEB (SYLDA), 44803 is space debris originally from a launch on Tue, 26 Nov 2019 UTC launched from the French Guiana (FRGUI). Debris objects in space refer to the collection of defunct objects orbiting the Earth. Examples of debris include non-operational satellites, rocket bodies, and fragments generated from explosions, collisions, or faulty payload assembly.

Loading next visibility...
Identifier
44803, 2019-080D
Orbit
Active
Country
Flag of FRFR
Related business
Manufacturer
ADS/Bremen
Mission
Spacecraft
Bus & Motor
SYLDA 5, Unknown motor
Mass
440 kg wet, 440 kg dry
Launch date (UTC)
2019-11-26 (6 years ago)
Launch vehicle
Unknown
Launch site
French Guiana (FRGUI)
Object type
Payload
Rocket body
Debris
Shape & HBR
Cyl, Unknown HBR
Radar Cross Section
27.391 m², Large (>1 m²)

Expand to show TLE details & history
Last TLE update: 16 hours ago

TLE from 16 hours ago
0 ARIANE 5 DEB (SYLDA)
1 44803U 19080D   25261.03803851  .00158100  00000-0  55339-2 0  9993
2 44803   5.3222 165.5185 4406192 245.8794  62.5499  6.75167399 84056
Epoch: 2025-09-18T00:54Z
TLE epoch observation values (Epoch: 2025-09-18T00:54:46.527Z)
Latitude
Longitude
154.61927°
Altitude
5,241.949 km
Speed
5.908 km/s
True Right ascension
11h 02m 04s
True Declination
0° 00' 00"
Sunlit
Object was in daylight at epoch
Visualization orbit readout
Latitude
Unknown
Longitude
Unknown
Altitude
Unknown
Speed
Unknown
Apparent Right ascension
Unknown
Apparent Declination
Unknown
Sunlit
N/A
Visualization observer readout
Local Sidereal Time
09:51:31
Azimuth
Unknown
Elevation
Unknown
Doppler factor
Unknown
Orbital elements
Apogee altitude
10,664.247 km
Perigee altitude
239.283 km
Semi-major axis
11,829.902 km
Eccentricity
0.44062
Inclination
5.3222°
RAAN
165.5185°
Arg. of periapsis
245.8794°
True anomaly
114.13012°
Mean anomaly
62.5499°
Eccentric anomaly
87.77651°
Mean motion
1.68683 °/min
Orbital period
213.42 mins
BSTAR
0.0055339
Loading maneuver chart data...
Computing Atmospheric mass density...
Loading historical data...
Loading historical data...
Loading historical data...
Loading historical data...
Loading historical data...
Loading historical data...
Loading historical data...
Other satellites on launch #80 in the year 2019 (2019-11-26 UTC)

Documentation

Showing up to 5 results
|